Location: *
(60.1759°S, 155.0663°W)
Time: 09:49:51
(UTC+00:00)

Lacrosse 4 Rocket - Pass Details

Date: 17 September 2019
Orbit: 544 x 615 km, 68.0° (Epoch: 23 October)

Event Time Altitude Azimuth Distance (km) Brightness Sun altitude
Exits shadow 13:34:13 - 229° (SW) 2,135 4.2 -20.7°
Reaches altitude 10° 13:34:36 10° 228° (SW) 1,989 4.0 -20.7°
Maximum altitude 13:38:55 44° 155° (SSE) 873 2.7 -20.3°
Drops below altitude 10° 13:43:16 10° 82° (E) 2,005 4.8 -19.8°
Sets 13:45:38 0° 75° (ENE) 2,911 5.6 -19.6°
